When you browse on this site, cookies collect data to enhance your experience and personalize the content and advertising you see.
Visit our Privacy Policy to learn more. By continuing to use the site, you agree to this use of cookies and data.
  • In Austria
  • List of Countries
  • For 7 days
  • Water Temperature
  • Satellite Maps
  • Weather Map
  • News
  • Weather Widgets
  • user-avatar
    Login

    Hourly Weather Semive

    Today, 16 February, Saturday

    Time Temperature Precipitation Wind Pressure Humidity
    00:00 -1°C° 0 mm 4 mps 743 mmHg 96%
    01:00 -1°C° 0 mm 4 mps 743 mmHg 97%
    02:00 -1°C° 0 mm 4 mps 743 mmHg 97%
    03:00 -1°C° 0 mm 4 mps 743 mmHg 98%
    04:00 0°C° 0 mm 3 mps 743 mmHg 98%
    05:00 0°C° 0 mm 3 mps 743 mmHg 98%
    06:00 0°C° 0 mm 3 mps 743 mmHg 98%
    07:00 0°C° 0 mm 3 mps 743 mmHg 98%
    08:00 0°C° 0 mm 3 mps 743 mmHg 98%
    09:00 0°C° 0 mm 3 mps 742 mmHg 98%
    10:00 0°C° 0 mm 3 mps 742 mmHg 97%
    11:00 +1°C° 0 mm 3 mps 742 mmHg 97%
    12:00 +1°C° 0 mm 3 mps 741 mmHg 96%
    13:00 +1°C° 0 mm 3 mps 741 mmHg 95%
    14:00 +1°C° 0 mm 3 mps 741 mmHg 94%
    15:00 +1°C° 0 mm 3 mps 740 mmHg 92%
    16:00 +1°C° 0 mm 3 mps 740 mmHg 90%
    17:00 +1°C° 0 mm 3 mps 740 mmHg 88%
    18:00 -1°C° 0 mm 4 mps 739 mmHg 87%
    19:00 -1°C° 0 mm 4 mps 739 mmHg 86%
    20:00 -1°C° 0 mm 4 mps 738 mmHg 85%
    21:00 -1°C° 0 mm 4 mps 738 mmHg 85%
    22:00 -1°C° 0 mm 4 mps 737 mmHg 85%
    23:00 -1°C° 0 mm 4 mps 737 mmHg 85%

    Tomorrow, 17 February, Sunday

    Time Temperature Precipitation Wind Pressure Humidity
    00:00 -1°C° 0 mm 4 mps 737 mmHg 86%
    01:00 -2°C° 0 mm 4 mps 736 mmHg 87%
    02:00 -2°C° 0 mm 4 mps 736 mmHg 87%
    03:00 -2°C° 0 mm 4 mps 736 mmHg 88%
    04:00 -2°C° 0 mm 5 mps 735 mmHg 89%
    05:00 -1°C° 0 mm 5 mps 735 mmHg 90%
    06:00 -1°C° 0 mm 5 mps 735 mmHg 90%
    07:00 -1°C° 0 mm 5 mps 735 mmHg 90%
    08:00 -1°C° 0 mm 5 mps 736 mmHg 91%
    09:00 -1°C° 0 mm 5 mps 736 mmHg 86%
    10:00 -1°C° 0 mm 5 mps 736 mmHg 81%
    11:00 -1°C° 0 mm 5 mps 736 mmHg 76%
    12:00 -1°C° 0 mm 5 mps 736 mmHg 75%
    13:00 -2°C° 0 mm 6 mps 737 mmHg 73%
    14:00 -2°C° 0 mm 6 mps 737 mmHg 72%
    15:00 -3°C° 0 mm 6 mps 737 mmHg 73%
    16:00 -3°C° 0 mm 6 mps 738 mmHg 74%
    17:00 -4°C° 0 mm 5 mps 738 mmHg 75%
    18:00 -5°C° 0 mm 5 mps 739 mmHg 76%
    19:00 -5°C° 0 mm 5 mps 739 mmHg 76%
    20:00 -5°C° 0 mm 5 mps 740 mmHg 77%
    21:00 -6°C° 0 mm 5 mps 740 mmHg 78%
    22:00 -5°C° 0 mm 4 mps 741 mmHg 79%
    23:00 -5°C° 0 mm 4 mps 741 mmHg 80%

    Day after tomorrow, 18 February, Monday

    Time Temperature Precipitation Wind Pressure Humidity
    00:00 -7°C° 0 mm 4 mps 742 mmHg 81%
    01:00 -7°C° 0 mm 4 mps 742 mmHg 81%
    02:00 -6°C° 0 mm 3 mps 743 mmHg 82%
    03:00 -6°C° 0 mm 3 mps 743 mmHg 83%
    04:00 -7°C° 0 mm 3 mps 744 mmHg 84%
    05:00 -7°C° 0 mm 3 mps 744 mmHg 85%
    06:00 -7°C° 0 mm 3 mps 745 mmHg 86%
    07:00 -7°C° 0 mm 3 mps 745 mmHg 86%
    08:00 -7°C° 0 mm 2 mps 746 mmHg 87%
    09:00 -6°C° 0 mm 2 mps 746 mmHg 84%
    10:00 -5°C° 0 mm 2 mps 747 mmHg 81%
    11:00 -5°C° 0 mm 2 mps 747 mmHg 78%
    12:00 -4°C° 0 mm 2 mps 747 mmHg 76%
    13:00 -4°C° 0 mm 2 mps 747 mmHg 74%
    14:00 -1°C° 0 mm 1 mps 747 mmHg 71%
    15:00 -2°C° 0 mm 1 mps 747 mmHg 74%
    16:00 -3°C° 0 mm 1 mps 747 mmHg 77%
    17:00 -4°C° 0 mm 1 mps 747 mmHg 81%
    18:00 -4°C° 0 mm 1 mps 747 mmHg 81%
    19:00 -4°C° 0 mm 1 mps 747 mmHg 81%
    20:00 -6°C° 0 mm 2 mps 747 mmHg 82%
    21:00 -6°C° 0 mm 2 mps 747 mmHg 81%
    22:00 -6°C° 0 mm 2 mps 747 mmHg 81%
    23:00 -6°C° 0 mm 3 mps 747 mmHg 80%

    19 February, Tuesday

    Time Temperature Precipitation Wind Pressure Humidity
    00:00 -6°C° 0 mm 3 mps 746 mmHg 78%
    01:00 -7°C° 0 mm 4 mps 746 mmHg 75%
    02:00 -5°C° 0 mm 4 mps 745 mmHg 73%
    03:00 -5°C° 0 mm 4 mps 745 mmHg 73%
    04:00 -5°C° 0 mm 4 mps 744 mmHg 72%
    05:00 -5°C° 0 mm 4 mps 744 mmHg 72%
    06:00 -6°C° 0 mm 5 mps 743 mmHg 73%
    07:00 -6°C° 0 mm 5 mps 743 mmHg 75%
    08:00 -6°C° 0 mm 5 mps 743 mmHg 76%
    09:00 -4°C° 0 mm 5 mps 742 mmHg 77%
    10:00 -2°C° 0 mm 5 mps 742 mmHg 77%
    11:00 -1°C° 0 mm 5 mps 742 mmHg 77%
    12:00 -1°C° 0 mm 5 mps 741 mmHg 77%
    13:00 -1°C° 0 mm 5 mps 740 mmHg 77%
    14:00 0°C° 0 mm 5 mps 740 mmHg 77%
    15:00 -1°C° 0 mm 5 mps 739 mmHg 78%
    16:00 -1°C° 0 mm 5 mps 739 mmHg 79%
    17:00 -2°C° 0 mm 5 mps 738 mmHg 79%
    18:00 -2°C° 0 mm 5 mps 738 mmHg 81%
    19:00 -2°C° 0 mm 5 mps 737 mmHg 82%
    20:00 -2°C° 0 mm 5 mps 737 mmHg 84%
    21:00 -2°C° 0 mm 5 mps 736 mmHg 85%
    22:00 -2°C° 0 mm 5 mps 736 mmHg 86%
    23:00 -2°C° 0 mm 5 mps 735 mmHg 88%

    20 February, Wednesday

    Time Temperature Precipitation Wind Pressure Humidity
    00:00 -2°C° 0 mm 4 mps 734 mmHg 89%
    01:00 -1°C° 0 mm 4 mps 734 mmHg 90%
    02:00 -1°C° 0 mm 4 mps 733 mmHg 91%
    03:00 -1°C° 0.7 mm 4 mps 732 mmHg 91%
    04:00 -1°C° 0.7 mm 4 mps 731 mmHg 91%
    05:00 -1°C° 0.7 mm 4 mps 731 mmHg 92%
    06:00 -1°C° 0.7 mm 4 mps 731 mmHg 92%
    07:00 -1°C° 0.7 mm 4 mps 730 mmHg 93%
    08:00 -1°C° 0.7 mm 4 mps 730 mmHg 94%
    09:00 -1°C° 0.2 mm 4 mps 730 mmHg 93%
    10:00 -1°C° 0.2 mm 4 mps 730 mmHg 93%
    11:00 0°C° 0.2 mm 4 mps 730 mmHg 92%
    12:00 0°C° 0.2 mm 4 mps 730 mmHg 91%
    13:00 0°C° 0.2 mm 4 mps 730 mmHg 90%
    14:00 0°C° 0.2 mm 4 mps 729 mmHg 89%
    15:00 0°C° 0.4 mm 5 mps 729 mmHg 87%
    16:00 0°C° 0.4 mm 5 mps 729 mmHg 85%
    17:00 -2°C° 0.4 mm 6 mps 729 mmHg 84%
    18:00 -2°C° 0.1 mm 6 mps 729 mmHg 82%
    19:00 -1°C° 0.1 mm 5 mps 729 mmHg 81%
    20:00 -2°C° 0.1 mm 5 mps 730 mmHg 80%
    21:00 -2°C° 0.2 mm 5 mps 730 mmHg 81%
    22:00 -2°C° 0.2 mm 5 mps 730 mmHg 82%
    23:00 -4°C° 0.2 mm 5 mps 730 mmHg 84%

    21 February, Thursday

    Time Temperature Precipitation Wind Pressure Humidity
    00:00 -3°C° 0.3 mm 6 mps 731 mmHg 84%
    01:00 -3°C° 0.3 mm 6 mps 731 mmHg 84%
    02:00 -3°C° 0.3 mm 6 mps 731 mmHg 85%
    03:00 -3°C° 0.1 mm 6 mps 732 mmHg 85%
    04:00 -2°C° 0.1 mm 5 mps 732 mmHg 85%
    05:00 -4°C° 0.1 mm 5 mps 733 mmHg 85%
    06:00 -4°C° 0.2 mm 5 mps 734 mmHg 84%
    07:00 -5°C° 0.2 mm 6 mps 734 mmHg 82%
    08:00 -5°C° 0.2 mm 6 mps 735 mmHg 80%
    09:00 -6°C° 0.1 mm 6 mps 735 mmHg 78%
    10:00 -6°C° 0.1 mm 6 mps 735 mmHg 75%
    11:00 -6°C° 0.1 mm 6 mps 736 mmHg 73%
    12:00 -6°C° 0.1 mm 6 mps 736 mmHg 73%
    13:00 -6°C° 0.1 mm 6 mps 737 mmHg 72%
    14:00 -6°C° 0.1 mm 6 mps 737 mmHg 71%
    15:00 -6°C° 0.1 mm 6 mps 738 mmHg 72%
    16:00 -8°C° 0.1 mm 6 mps 739 mmHg 73%
    17:00 -7°C° 0.1 mm 5 mps 740 mmHg 74%
    18:00 -8°C° 0 mm 5 mps 740 mmHg 74%
    19:00 -10°C° 0 mm 5 mps 741 mmHg 74%
    20:00 -10°C° 0 mm 4 mps 742 mmHg 74%
    21:00 -10°C° 0 mm 4 mps 742 mmHg 74%
    22:00 -11°C° 0 mm 4 mps 743 mmHg 75%
    23:00 -11°C° 0 mm 4 mps 743 mmHg 75%
    Show more